Terminal Aerodrome Forecast
Issued by NWS

Current Version | Previous Version | Graphics & Text | Print | Product List | Glossary On
Versions: 1 2 3 4 5 6 7 8 9 10 11 12 13 14 15 16 17 18 19 20 21
000
FTUS41 KILN 011500 AAB
TAFLUK
TAF AMD
KLUK 011526Z 0115/0212 VRB03KT P6SM VCSH OVC030
      TEMPO 0115/0116 4SM -FZRA OVC035
     FM011900 24006KT P6SM VCSH OVC022
      TEMPO 0119/0122 4SM -RA OVC018
     FM012200 28006KT 3SM -SN OVC015
      TEMPO 0200/0204 1SM -SN OVC009
     FM020400 31008KT P6SM OVC015=

USA.gov is the U.S. government's official web portal to all federal, state and local government web resources and services.